This is the latest recevied weather packets stored in our database for station/object LX0APE-4. If no packets are shown the sender has not sent any weather packets the latest 10 day(s).
| Time | Temp. | Humidity | Pressure | Rain* | Wind** | Luminosity | Snow |
|---|---|---|---|---|---|---|---|
| 1777483026 | 24.44° C | 17% | 5017.8 hPa | 0 mm | - | - | - |
| 1777482726 | 25° C | 17% | 5017.8 hPa | 0 mm | - | - | - |
| 1777482431 | 25° C | 17% | 5017.9 hPa | 0 mm | - | - | - |
| 1777482426 | 25° C | 17% | 5017.9 hPa | 0 mm | - | - | - |
| 1777482126 | 25° C | 17% | 5017.9 hPa | 0 mm | - | - | - |
| 1777481826 | 25° C | 17% | 5017.8 hPa | 0 mm | - | - | - |
| 1777481526 | 25° C | 17% | 5017.8 hPa | 0 mm | - | - | - |
| 1777481226 | 25° C | 16% | 5017.8 hPa | 0 mm | - | - | - |
| 1777480926 | 25° C | 17% | 5018 hPa | 0 mm | - | - | - |
| 1777480626 | 25° C | 16% | 5018 hPa | 0 mm | - | - | - |
| 1777480326 | 25.56° C | 16% | 5018 hPa | 0 mm | - | - | - |
| 1777480026 | 26.11° C | 16% | 5017.9 hPa | 0 mm | - | - | - |
| 1777479731 | 26.11° C | 16% | 5017.8 hPa | 0 mm | - | - | - |
| 1777479726 | 26.11° C | 16% | 5017.8 hPa | 0 mm | - | - | - |
| 1777479426 | 26.11° C | 16% | 5017.8 hPa | 0 mm | - | - | - |
| 1777479126 | 26.11° C | 16% | 5017.8 hPa | 0 mm | - | - | - |
| 1777478826 | 26.67° C | 15% | 5017.8 hPa | 0 mm | - | - | - |
| 1777478526 | 27.22° C | 15% | 5017.8 hPa | 0 mm | - | - | - |
| 1777478226 | 27.22° C | 15% | 5017.6 hPa | 0 mm | - | - | - |
| 1777477931 | 27.22° C | 15% | 5017.6 hPa | 0 mm | - | - | - |
| 1777477926 | 27.22° C | 15% | 5017.6 hPa | 0 mm | - | - | - |
| 1777477626 | 27.22° C | 16% | 5017.6 hPa | 0 mm | - | - | - |
| 1777477326 | 26.11° C | 17% | 5017.6 hPa | 0 mm | - | - | - |
| 1777477026 | 25.56° C | 16% | 5017.7 hPa | 0 mm | - | - | - |
| 1777476726 | 26.11° C | 16% | 5017.6 hPa | 0 mm | - | - | - |
* Rain latest hour (hover to see other rain measurements)
** Current wind speed in m/s (hover to see current wind gust speed)